Tracking 18840 objects as of 18-November-2017
HD Live streaming from Space Station
objects crossing your sky now

FENGYUN 1C DEB

Track FENGYUN 1C DEB now!
10-day predictions


NORAD ID: 31563
Int'l Code: 1999-025BZE
Perigee: 627.9 km
Apogee: 830.1 km
Inclination: 98.9 °
Period: 99.2 minutes
Semi major axis: 7100 km
RCS: 0.0017 m2 (small)
Launch date: May 10, 1999
Source: People's Republic of China (PRC)
Launch site: Taiyaun Space Center, China (TSC)

Note: This is SATELLITE DEBRIS
aabbcc
Your satellite tracking list
Your tracking list is empty




NASA's NSSDC Master Catalog

Two Line Element Set (TLE):
1 31563U 99025BZE 17321.55267338 +.00000402 +00000-0 +10189-3 0  9994
2 31563 098.8977 232.2008 0142421 356.4359 003.5807 14.51156446557102
Source of the keplerian elements: AFSPC